Location: Antoign�
(47.0844°N, 0.1131°W)
Time: 07:25:48
(UTC+00:00)

Cosmos 2242 Rocket - Pass Details

Date: 03 March 2021
Orbit: 617 x 652 km, 82.5° (Epoch: 11 April)

Event Time Altitude Azimuth Distance (km) Brightness Sun altitude
Rises 19:05:12 0° 353° (N) 2,961 7.2 -13.8°
Reaches altitude 10° 19:07:29 10° 356° (N) 2,041 6.3 -14.1°
Maximum altitude 19:12:00 66° 79° (E) 694 3.5 -14.9°
Drops below altitude 10° 19:16:25 10° 162° (SSE) 2,002 5.9 -15.7°
Sets 19:18:38 0° 165° (SSE) 2,899 6.8 -16.0°
